Overview Statistics Trail Chart Weather Telemetry Raw packets
 

This is the latest recevied weather packets stored in our database for station/object KB4MLW-13. If no packets are shown the sender has not sent any weather packets the latest 10 day(s).

<< 106 107 108 109 110 111 112 >>
Time Temp. Humidity Pressure Rain* Wind** Luminosity Snow
1788198329 33.33° C 62% 1003 hPa 0 mm - - -
1788198208 33.33° C 61% 1002.9 hPa 0 mm - - -
1788198148 33.33° C 66% 1003.1 hPa 0 mm - - -
1788198088 33.33° C 65% 1002.9 hPa 0 mm - - -
1788197998 32.78° C 64% 1002.9 hPa 0 mm - - -
1788197938 32.78° C 62% 1003.2 hPa 0 mm - - -
1788197879 32.78° C 63% 1003 hPa 0 mm - - -
1788197800 32.78° C 63% 1003.1 hPa 0 mm - - -
1788197700 32.78° C 64% 1003 hPa 0 mm - - -
1788197638 32.78° C 63% 1003.1 hPa 0 mm - - -
1788197578 32.78° C 63% 1002.9 hPa 0 mm - - -
1788197518 32.78° C 63% 1003.1 hPa 0 mm - - -
1788197430 32.78° C 64% 1002.9 hPa 0 mm - - -
1788197368 32.78° C 65% 1002.9 hPa 0 mm - - -
1788197308 32.22° C 63% 1003 hPa 0 mm - - -
1788197248 32.22° C 65% 1002.8 hPa 0 mm - - -
1788197188 32.22° C 63% 1003.2 hPa 0 mm - - -
1788197128 32.78° C 63% 1003.1 hPa 0 mm - - -
1788197068 32.78° C 65% 1003.1 hPa 0 mm - - -
1788197008 32.78° C 66% 1003.1 hPa 0 mm - - -
1788196949 32.78° C 64% 1003.1 hPa 0 mm - - -
1788196888 32.78° C 66% 1003.1 hPa 0 mm - - -
1788196799 32.78° C 67% 1003.1 hPa 0 mm - - -
1788196738 32.78° C 65% 1003.1 hPa 0 mm - - -
1788196649 32.78° C 67% 1003.2 hPa 0 mm - - -

* Rain latest hour (hover to see other rain measurements)
** Current wind speed in m/s (hover to see current wind gust speed)